This is the latest recevied weather packets stored in our database for station/object JH4GLG-13. If no packets are shown the sender has not sent any weather packets the latest 1 day(s).
| Time | Temp. | Humidity | Pressure | Rain* | Wind** | Luminosity | Snow |
|---|---|---|---|---|---|---|---|
| 1778092903 | 14.44° C | 89% | 1016.2 hPa | 0 mm | - | - | - |
| 1778089303 | 14.44° C | 89% | 1016.6 hPa | 0 mm | - | - | - |
| 1778088404 | 15° C | 89% | 1016.5 hPa | 0 mm | - | - | - |
| 1778086603 | 15° C | 88% | 1016.8 hPa | 0 mm | - | - | - |
| 1778085702 | 15° C | 89% | 1016.8 hPa | 0 mm | - | - | - |
| 1778084803 | 15° C | 88% | 1016.9 hPa | 0 mm | - | - | - |
| 1778083003 | 15.56° C | 88% | 1017.1 hPa | 0 mm | - | - | - |
| 1778082102 | 15.56° C | 87% | 1017.2 hPa | 0 mm | - | - | - |
| 1778079403 | 16.11° C | 86% | 1017.6 hPa | 0 mm | - | - | - |
| 1778077602 | 16.11° C | 85% | 1017.9 hPa | 0 mm | - | - | - |
| 1778073101 | 17.22° C | 83% | 1017.6 hPa | 0 mm | - | - | - |
| 1778069500 | 17.78° C | 80% | 1017.5 hPa | 0 mm | - | - | - |
| 1778067700 | 18.33° C | 80% | 1017.4 hPa | 0 mm | - | - | - |
| 1778066801 | 18.89° C | 79% | 1017.2 hPa | 0 mm | - | - | - |
| 1778065001 | 18.89° C | 77% | 1017.1 hPa | 0 mm | - | - | - |
| 1778064100 | 18.89° C | 75% | 1017.1 hPa | 0 mm | - | - | - |
| 1778063201 | 18.89° C | 75% | 1017 hPa | 0 mm | - | - | - |
| 1778062299 | 19.44° C | 74% | 1016.9 hPa | 0 mm | - | - | - |
| 1778061400 | 19.44° C | 73% | 1017.1 hPa | 0 mm | - | - | - |
| 1778059632 | 20° C | 69% | 1017.1 hPa | 0 mm | - | - | - |
| 1778056898 | 21.11° C | 65% | 1017 hPa | 0 mm | - | - | - |
| 1778055999 | 21.67° C | 64% | 1017 hPa | 0 mm | - | - | - |
| 1778055099 | 21.67° C | 64% | 1017 hPa | 0 mm | - | - | - |
| 1778053298 | - | - | 639.3 hPa | 0 mm | - | - | - |
| 1778052399 | 22.22° C | 60% | 1017.1 hPa | 0 mm | - | - | - |
* Rain latest hour (hover to see other rain measurements)
** Current wind speed in m/s (hover to see current wind gust speed)